Wind_Speed
4 4 4 3 3 2 2 1 1 1 1 2 3 3 3 3 3 3 3 3 2 2 2 1 1 2 2 2 2 2 3 3 4 4 4 4 4 4 5 5 3 4 4
4 4 4 4 3 2 2 2 1 1 0 1 2 2 2 3 3 2 2 2 2 1 1 2 1 1 1 2 2 2 3 3 4 5 5 5 4 5 5 5 4 4 4
4 5 4 4 4 3 3 3 2 1 1 0 1 2 1 2 2 2 2 2 1 1 2 2 2 2 2 3 3 2 3 3 3 5 5 5 5 5 5 5 5 4 4
5 5 5 5 4 4 3 3 3 2 2 1 1 1 1 1 1 1 2 2 1 2 2 2 2 2 3 3 3 3 3 3 4 5 5 5 5 5 6 5 4 4 4
5 6 5 5 5 5 4 4 4 3 3 2 2 2 2 2 2 2 2 3 2 2 2 3 3 3 3 4 3 4 4 4 3 4 5 5 5 5 6 5 4 5 4
6 7 6 6 6 5 5 5 5 4 4 3 3 3 3 3 3 3 4 4 3 3 2 3 3 3 3 3 4 4 4 3 3 4 5 6 6 6 6 6 6 6 5
7 7 7 6 6 6 6 6 5 5 5 5 4 4 4 4 4 4 4 4 4 3 3 3 4 4 4 4 4 3 3 3 3 3 5 6 6 6 6 7 7 6 6
8 7 7 6 5 6 6 6 5 5 5 5 5 5 5 6 5 6 5 4 4 4 4 4 4 4 5 5 4 3 4 3 3 3 4 5 6 7 6 8 8 7 7
8 8 7 6 5 5 6 6 6 6 6 6 6 6 6 6 6 7 7 6 6 6 5 5 6 6 5 5 5 4 4 4 4 3 4 4 6 7 6 7 7 8 8
9 9 8 7 6 6 6 6 6 6 7 7 7 7 7 7 7 7 8 8 7 7 7 6 7 6 7 6 5 5 6 5 5 4 5 5 5 6 6 7 8 8 9
10 9 9 8 7 7 7 7 7 7 7 8 8 7 8 8 8 8 8 9 9 9 9 8 8 8 7 7 6 6 6 6 5 5 5 5 5 5 6 7 8 9 8
10 9 9 8 7 7 8 8 8 8 8 9 9 8 9 9 9 9 9 9 10 10 10 10 10 9 9 8 8 7 7 7 6 6 6 7 7 6 6 7 7 8 8
10 10 10 9 8 9 9 9 8 8 9 9 9 9 9 10 10 10 10 10 10 11 11 10 10 10 10 9 9 8 8 8 8 7 7 7 7 6 6 7 8 8 8
11 10 10 10 10 10 10 10 9 9 9 9 10 10 10 10 11 10 10 11 11 11 11 11 11 11 11 10 10 9 9 10 9 9 8 8 7 7 7 7 8 8 9
11 11 11 11 11 11 11 11 10 10 9 10 10 10 11 11 11 11 11 12 11 11 11 11 12 11 12 12 11 10 11 11 10 9 9 8 8 7 8 8 8 9 9
12 12 12 12 12 12 12 11 11 10 10 10 10 10 10 11 11 12 12 12 12 12 12 12 12 12 12 12 12 12 12 12 12 10 10 9 9 8 8 8 8 9 9
13 13 14 13 12 12 12 12 11 10 10 10 10 10 10 11 12 13 13 13 13 13 13 12 12 12 13 13 13 13 13 13 12 11 11 11 10 10 9 9 9 10 10
14 14 14 13 12 12 12 12 11 11 11 11 11 10 10 11 12 12 13 14 14 13 13 13 12 13 13 14 14 14 14 14 13 13 13 12 11 11 11 10 11 11 12
15 14 14 13 13 13 12 11 12 12 12 12 12 11 11 11 12 12 13 13 13 13 13 13 13 13 13 14 14 15 15 15 14 14 14 14 13 12 12 12 12 12 13
15 15 14 14 14 13 14 13 13 13 13 13 12 12 11 11 12 12 13 13 13 13 13 14 14 13 13 14 14 15 16 16 16 15 15 15 15 14 14 13 13 13 13
15 15 15 15 15 14 14 13 13 14 13 13 13 12 11 12 12 12 12 13 13 13 13 13 14 14 14 14 14 15 16 16 16 15 15 15 15 15 15 14 15 14 14
15 15 15 15 15 15 14 14 14 13 13 13 12 12 11 11 12 12 11 11 12 12 12 12 13 14 14 13 13 14 15 16 16 16 15 15 15 15 15 15 16 16 16
15 15 14 14 14 14 13 14 13 13 12 12 12 11 11 10 10 11 10 10 11 12 12 11 12 13 13 13 13 14 16 16 16 16 15 15 15 15 16 16 17 17 17
15 15 15 14 13 13 13 13 13 13 13 13 12 11 10 10 10 10 10 10 10 11 11 11 12 13 13 14 14 15 16 17 17 17 16 16 16 16 17 17 16 17 17
16 15 14 13 13 13 14 13 13 13 13 13 12 11 11 11 11 10 9 9 10 11 11 11 11 12 14 15 15 16 17 17 18 18 17 17 17 17 17 17 17 17 17
15 15 14 13 13 13 13 13 13 12 12 11 11 11 11 11 10 10 10 11 11 10 10 11 12 13 14 15 16 17 17 18 19 19 18 17 17 17 17 16 17 17 17
Wind_Direction
3 1 358 358 352 339 344 358 18 40 90 106 112 109 106 118 112 113 118 111 107 113 114 113 116 142 170 188 187 186 177 169 167 172 171 173 174 182 186 178 180 175 169
355 355 349 340 333 322 321 327 334 347 42 126 124 120 120 129 135 140 140 132 124 147 141 146 135 139 188 201 192 183 177 172 169 180 179 179 185 193 192 196 193 186 184
353 348 333 321 319 314 309 304 312 320 326 167 159 149 141 134 148 169 168 160 137 202 196 182 173 186 191 196 198 193 187 192 186 189 186 188 197 205 205 200 194 193 191
349 344 331 317 314 308 300 288 283 294 285 256 228 202 183 152 155 186 198 187 195 199 206 187 183 195 201 206 206 204 208 202 204 209 204 210 208 210 197 204 212 205 202
339 335 328 319 311 306 292 281 275 281 268 251 252 241 226 212 214 216 205 207 212 198 210 196 198 218 229 228 219 220 219 211 216 217 222 218 215 209 211 220 224 214 212
326 325 322 314 309 302 291 276 272 268 256 252 254 252 241 229 225 217 211 216 216 218 225 225 220 226 240 240 230 226 225 228 225 238 238 225 219 216 221 223 225 226 224
318 317 315 308 302 296 286 276 271 262 256 252 251 253 247 239 230 219 216 215 223 232 242 242 230 228 237 231 231 241 230 240 233 244 249 230 221 218 222 230 227 230 228
316 314 312 311 303 296 286 278 265 258 253 254 256 256 252 242 237 227 218 221 229 236 240 242 236 235 229 222 236 240 219 221 217 232 248 244 229 224 231 237 232 226 225
311 312 310 308 302 296 286 272 265 260 256 259 263 265 257 245 242 241 236 235 235 238 238 243 241 232 231 239 246 241 229 222 223 224 244 244 232 230 233 233 236 221 219
305 305 303 300 298 292 284 272 266 263 258 257 258 263 258 250 246 247 243 237 235 236 236 242 245 241 244 252 249 245 240 236 228 233 235 233 238 236 230 235 237 226 219
303 301 298 299 296 294 285 276 269 264 259 256 258 262 262 255 251 249 248 245 243 243 241 240 242 245 246 245 242 241 240 235 230 234 232 235 243 236 231 236 240 236 231
300 299 300 300 296 293 288 282 277 269 263 258 261 264 263 257 253 251 248 245 247 249 245 243 244 245 243 239 235 235 237 238 231 233 238 247 249 239 233 239 241 240 237
302 300 301 296 295 292 287 282 276 269 266 263 263 264 261 258 253 252 250 247 247 247 245 244 241 243 243 241 240 237 238 238 238 239 242 248 253 247 249 252 248 243 240
295 297 300 296 291 290 285 278 271 271 268 263 263 264 259 257 255 256 254 251 248 248 249 246 244 244 243 245 242 238 242 242 241 244 242 247 253 253 260 263 252 243 244
295 295 293 297 295 288 285 278 271 270 267 265 265 264 261 258 256 256 256 251 248 249 249 248 245 244 243 240 239 237 240 242 243 249 247 246 250 251 256 260 255 250 251
291 293 293 290 292 290 283 276 274 271 266 266 264 264 263 264 259 257 253 253 251 250 251 248 244 243 244 242 245 243 243 243 243 246 246 247 248 250 253 257 256 258 255
291 291 293 291 288 291 285 275 273 272 268 267 267 267 263 263 261 256 252 252 251 251 249 244 244 243 245 246 246 243 244 244 240 241 243 245 249 254 255 253 252 253 253
292 293 294 290 290 290 286 277 271 270 270 268 270 270 265 264 262 258 253 252 251 250 247 246 245 244 245 245 244 243 244 243 240 242 242 243 248 253 256 257 256 253 255
289 289 290 291 290 289 285 274 270 268 268 267 270 271 267 264 261 261 256 252 251 251 250 248 248 247 248 246 245 244 242 241 241 243 243 245 250 255 258 258 259 259 260
290 287 286 287 286 285 286 276 268 266 264 263 266 270 270 267 266 264 257 252 252 252 252 248 247 246 247 245 245 247 245 240 241 243 244 246 249 255 257 257 261 263 262
291 288 285 284 282 281 280 274 270 264 262 260 262 266 270 270 271 268 259 252 252 251 248 242 243 245 246 244 244 246 244 240 240 241 244 247 251 254 258 259 260 262 264
292 290 287 283 278 275 273 272 273 268 265 261 262 265 269 270 268 267 260 253 256 250 243 242 243 243 244 243 243 245 242 240 241 243 248 251 253 256 260 262 261 260 263
293 292 288 282 275 271 270 270 272 274 270 268 266 265 269 271 264 263 258 254 252 249 249 248 245 241 241 244 245 245 243 243 244 247 250 252 254 257 260 263 262 261 262
289 289 286 280 273 268 268 269 273 273 267 266 265 266 266 268 268 263 254 250 251 248 250 250 246 245 242 245 249 249 245 244 247 250 250 252 255 260 261 262 263 264 263
284 284 283 278 269 266 266 268 272 272 267 264 262 264 267 267 263 257 251 250 253 252 251 250 246 246 245 247 248 248 249 248 249 252 252 255 258 261 261 263 262 265 265
282 280 280 275 266 264 266 269 270 270 267 265 260 263 267 264 260 256 255 252 254 255 253 252 248 248 249 249 250 251 251 250 251 253 255 256 260 262 262 262 262 264 265
Height
5890 5889 5888 5888 5887 5886 5886 5886 5885 5885 5885 5885 5885 5885 5884 5884 5884 5884 5884 5883 5883 5883 5883 5883 5883 5883 5884 5884 5884 5885 5885 5886 5886 5887 5887 5888 5889 5889 5889 5890 5890 5891 5891
5889 5888 5887 5887 5886 5886 5885 5885 5885 5885 5884 5884 5884 5884 5884 5884 5884 5883 5883 5883 5883 5883 5883 5883 5883 5883 5883 5884 5884 5884 5885 5885 5886 5886 5887 5888 5888 5889 5889 5889 5890 5890 5891
5888 5887 5887 5886 5885 5885 5884 5884 5884 5884 5883 5883 5883 5883 5883 5883 5883 5883 5883 5883 5882 5882 5882 5882 5883 5883 5883 5883 5883 5884 5884 5884 5885 5885 5886 5887 5888 5888 5889 5889 5889 5890 5890
5887 5887 5886 5885 5884 5884 5883 5883 5883 5883 5882 5882 5882 5882 5882 5882 5882 5882 5882 5882 5881 5881 5881 5881 5882 5882 5882 5883 5883 5883 5883 5884 5884 5885 5886 5886 5887 5888 5888 5889 5889 5890 5890
5886 5885 5885 5884 5883 5883 5882 5882 5882 5881 5881 5881 5881 5881 5881 5881 5881 5881 5881 5881 5881 5881 5881 5881 5881 5882 5882 5882 5882 5883 5883 5883 5884 5884 5885 5886 5886 5887 5887 5888 5889 5889 5889
5885 5884 5883 5883 5882 5881 5881 5880 5880 5880 5880 5880 5880 5880 5880 5880 5880 5880 5880 5880 5880 5880 5880 5880 5880 5881 5881 5882 5882 5882 5882 5882 5883 5884 5884 5885 5885 5886 5887 5887 5888 5888 5889
5884 5883 5882 5881 5881 5880 5879 5879 5878 5878 5878 5878 5878 5878 5878 5879 5878 5878 5878 5879 5879 5879 5879 5879 5879 5880 5880 5881 5881 5881 5881 5882 5882 5883 5883 5884 5884 5885 5886 5886 5887 5887 5888
5883 5882 5881 5880 5879 5879 5878 5877 5877 5877 5876 5876 5876 5877 5877 5877 5877 5877 5877 5877 5878 5878 5878 5878 5879 5879 5879 5879 5880 5880 5880 5881 5881 5882 5882 5883 5883 5884 5885 5885 5885 5886 5887
5882 5881 5880 5879 5878 5877 5876 5876 5875 5875 5875 5875 5874 5875 5875 5875 5875 5875 5876 5876 5876 5877 5876 5877 5877 5877 5878 5878 5878 5879 5879 5880 5880 5880 5881 5882 5882 5883 5883 5884 5884 5885 5886
5880 5879 5878 5877 5876 5875 5875 5874 5874 5873 5873 5873 5873 5873 5873 5873 5873 5873 5874 5874 5874 5874 5874 5875 5875 5876 5876 5877 5877 5877 5878 5878 5879 5879 5880 5881 5881 5882 5882 5882 5883 5883 5884
5879 5877 5876 5875 5874 5874 5873 5872 5872 5871 5871 5871 5871 5870 5870 5871 5871 5871 5871 5872 5872 5872 5872 5873 5873 5874 5874 5875 5875 5875 5876 5877 5877 5878 5879 5880 5880 5881 5881 5881 5881 5881 5882
5877 5876 5874 5874 5873 5872 5871 5870 5870 5869 5868 5868 5868 5868 5868 5868 5869 5869 5869 5869 5869 5870 5870 5870 5871 5871 5872 5872 5873 5874 5874 5875 5876 5877 5878 5878 5879 5879 5880 5880 5880 5880 5880
5875 5874 5872 5872 5871 5870 5869 5868 5867 5867 5866 5866 5866 5866 5866 5866 5866 5866 5867 5867 5867 5867 5868 5868 5868 5869 5869 5870 5871 5872 5873 5873 5874 5875 5876 5877 5877 5878 5878 5879 5879 5879 5880
5872 5871 5870 5869 5869 5868 5867 5866 5865 5864 5863 5863 5863 5863 5863 5863 5864 5864 5864 5864 5865 5865 5865 5866 5866 5866 5867 5868 5868 5869 5870 5871 5872 5873 5874 5875 5876 5876 5876 5877 5877 5878 5878
5870 5869 5868 5867 5866 5865 5864 5863 5863 5862 5861 5861 5860 5860 5860 5860 5860 5861 5861 5862 5862 5862 5863 5863 5864 5864 5864 5865 5866 5867 5868 5869 5870 5871 5872 5873 5874 5874 5874 5875 5875 5876 5876
5867 5866 5865 5864 5863 5863 5861 5860 5860 5859 5859 5858 5858 5858 5858 5857 5857 5858 5859 5859 5859 5860 5860 5861 5861 5861 5862 5863 5864 5865 5866 5867 5868 5869 5870 5871 5871 5872 5872 5873 5873 5873 5874
5864 5863 5862 5861 5860 5859 5858 5857 5857 5857 5856 5856 5855 5855 5855 5855 5855 5855 5856 5856 5856 5857 5857 5857 5858 5859 5859 5860 5861 5862 5863 5864 5865 5866 5867 5868 5869 5870 5870 5870 5871 5871 5871
5862 5861 5860 5858 5857 5856 5855 5854 5854 5854 5853 5853 5853 5853 5852 5852 5852 5852 5852 5853 5853 5853 5854 5854 5855 5856 5856 5857 5858 5859 5860 5861 5863 5864 5865 5866 5867 5867 5868 5868 5868 5869 5869
5859 5858 5857 5855 5855 5853 5852 5851 5851 5851 5850 5850 5850 5850 5849 5849 5849 5849 5849 5849 5850 5850 5851 5851 5852 5853 5853 5854 5855 5856 5857 5858 5860 5861 5862 5863 5864 5864 5865 5865 5866 5866 5866
5856 5855 5854 5852 5851 5850 5849 5848 5848 5847 5847 5847 5847 5847 5846 5846 5846 5846 5846 5846 5846 5846 5847 5848 5849 5850 5850 5851 5852 5853 5854 5855 5857 5858 5859 5860 5861 5861 5862 5862 5863 5863 5863
5853 5851 5850 5849 5848 5847 5846 5845 5844 5844 5843 5843 5843 5843 5843 5843 5843 5842 5843 5843 5843 5843 5844 5845 5846 5846 5847 5848 5848 5849 5850 5852 5853 5855 5855 5856 5857 5858 5859 5859 5859 5860 5860
5850 5848 5846 5845 5844 5843 5843 5842 5841 5840 5839 5840 5840 5840 5840 5840 5839 5839 5839 5840 5840 5840 5841 5842 5842 5843 5844 5845 5845 5846 5848 5849 5850 5851 5852 5853 5854 5854 5855 5856 5856 5856 5856
5846 5844 5843 5841 5840 5840 5839 5839 5838 5837 5837 5837 5837 5837 5837 5836 5836 5836 5836 5836 5837 5838 5838 5839 5840 5840 5841 5842 5842 5843 5845 5846 5847 5847 5848 5849 5850 5851 5851 5852 5852 5852 5852
5842 5841 5839 5838 5837 5836 5836 5835 5835 5835 5834 5834 5834 5834 5834 5833 5833 5833 5833 5834 5834 5835 5835 5836 5837 5837 5838 5839 5839 5840 5842 5843 5844 5844 5845 5846 5847 5847 5847 5848 5848 5847 5847
5838 5837 5835 5834 5834 5833 5833 5833 5832 5832 5831 5830 5830 5831 5831 5830 5831 5831 5831 5831 5831 5832 5833 5833 5833 5834 5835 5836 5836 5837 5838 5839 5840 5841 5842 5842 5843 5843 5843 5843 5843 5843 5843
5834 5833 5832 5831 5830 5830 5830 5829 5829 5828 5828 5827 5828 5828 5828 5828 5828 5828 5828 5829 5829 5830 5830 5830 5831 5831 5832 5832 5833 5833 5834 5835 5836 5837 5838 5838 5838 5839 5839 5839 5839 5839 5839